EW9774 Weather Reports


Display with metric or nautical units.
time (UTC)temp
F
wind
direction
speed
MPH
gust
MPH
rain 1hr
in
rain 24hr
in
rain mn
in
humidity
%
barometer
mb
20260831194531 77 66 7.0 15.0 0.00 0.00 0.00 39 1013.0
20260831190029 74 51 6.0 11.0 0.00 0.00 0.00 43 1013.9
20260831184608 73 36 5.0 13.0 0.00 0.00 0.00 45 1014.2
20260831183031 72 30 6.0 11.0 0.00 0.00 0.00 48 1014.5
20260831180029 71 17 1.0 5.0 0.00 0.00 0.00 57 1014.9
20260831174606 69 53 1.0 4.0 0.00 0.00 0.00 59 1015.1
20260831173031 67 73 1.0 4.0 0.00 0.00 0.00 60 1015.2
20260831171532 66 64 1.0 3.0 0.00 0.00 0.00 61 1015.4
20260831170032 65 90 1.0 4.0 0.00 0.00 0.00 63 1015.5
20260831164530 64 122 1.0 4.0 0.00 0.00 0.00 64 1015.8
20260831163030 63 57 1.0 4.0 0.00 0.00 0.00 69 1015.9
20260831160028 60 337 0.0 2.0 0.00 0.00 0.00 76 1016.1
20260831154603 58 337 0.0 2.0 0.00 0.00 0.00 81 1016.2
20260831151530 55 194 0.0 2.0 0.00 0.00 0.00 92 1016.3
20260831150030 53 180 0.0 0.0 0.00 0.00 0.00 95 1016.2
20260831144529 50 180 0.0 2.0 0.00 0.00 0.00 95 1016.1
20260831143106 47 180 0.0 1.0 0.00 0.00 0.00 95 1016.1
20260831141533 45 180 0.0 2.0 0.00 0.00 0.00 94 1016.0
20260831140105 45 180 0.0 3.0 0.00 0.00 0.00 94 1015.9
20260831134533 44 196 0.0 3.0 0.00 0.00 0.00 94 1015.8
20260831133103 44 202 1.0 2.0 0.00 0.00 0.00 93 1015.8
20260831131532 44 186 0.0 3.0 0.00 0.00 0.00 93 1015.8
20260831130030 45 180 0.0 2.0 0.00 0.00 0.00 93 1015.8
20260831124531 45 180 1.0 3.0 0.00 0.00 0.00 93 1015.8
20260831121533 46 190 0.0 3.0 0.00 0.00 0.00 92 1015.7
20260831120029 46 202 0.0 1.0 0.00 0.00 0.00 92 1015.8
20260831114536 46 189 2.0 4.0 0.00 0.00 0.00 92 1015.9
20260831113030 46 180 1.0 4.0 0.00 0.00 0.00 91 1015.8
20260831111607 46 185 0.0 4.0 0.00 0.00 0.00 91 1015.9
20260831110030 47 180 0.0 2.0 0.00 0.00 0.00 91 1015.9
20260831104530 47 180 0.0 3.0 0.00 0.00 0.00 91 1015.9
20260831103029 47 181 1.0 3.0 0.00 0.00 0.00 90 1016.0
20260831101529 47 181 2.0 5.0 0.00 0.00 0.00 90 1015.9
20260831100029 47 180 0.0 3.0 0.00 0.00 0.00 90 1016.0
20260831094532 48 180 0.0 3.0 0.00 0.00 0.00 89 1016.2
20260831093030 48 180 2.0 4.0 0.00 0.00 0.00 88 1016.3
20260831091532 49 200 2.0 3.0 0.00 0.00 0.00 88 1016.4
20260831084529 50 180 0.0 4.0 0.00 0.00 0.00 86 1016.4
20260831083144 50 180 0.0 3.0 0.00 0.00 0.00 85 1016.5
20260831081540 51 190 1.0 4.0 0.00 0.00 0.00 85 1016.6
20260831081531 51 180 1.0 5.0 0.00 0.00 0.00 85 1016.6
20260831074534 51 183 3.0 5.0 0.00 0.00 0.00 85 1016.7
20260831071531 51 180 3.0 5.0 0.00 0.00 0.00 84 1016.7
20260831070108 51 180 2.0 5.0 0.00 0.00 0.00 84 1016.8
20260831064529 52 184 3.0 4.0 0.00 0.00 0.00 84 1016.9
20260831061540 53 185 0.0 1.0 0.00 0.00 0.00 80 1017.0
20260831060032 54 187 1.0 5.0 0.00 0.00 0.00 78 1016.9
20260831054530 55 189 2.0 4.0 0.00 0.00 0.00 78 1017.0
20260831051607 55 181 3.0 7.0 0.00 0.00 0.00 78 1017.1
20260831044529 56 180 3.0 4.0 0.00 0.00 0.00 78 1017.1
20260831043030 56 180 3.0 6.0 0.00 0.00 0.00 78 1017.1
20260831034528 59 195 2.0 4.0 0.00 0.00 0.00 71 1016.9
20260831033030 60 188 2.0 4.0 0.00 0.00 0.00 70 1016.7
20260831031530 62 170 2.0 4.0 0.00 0.00 0.00 68 1016.6
20260831024530 64 181 4.0 8.0 0.00 0.00 0.00 62 1016.5
20260831023030 66 180 3.0 6.0 0.00 0.00 0.00 59 1016.5
20260831020033 68 182 5.0 11.0 0.00 0.00 0.00 53 1016.5
20260831014529 69 181 5.0 14.0 0.00 0.00 0.00 51 1016.4
20260831013029 70 182 7.0 15.0 0.00 0.00 0.00 49 1016.5
20260831011529 71 181 7.0 14.0 0.00 0.00 0.00 48 1016.6
20260831010030 71 183 5.0 13.0 0.00 0.00 0.00 47 1016.6
20260831004530 72 185 4.0 16.0 0.00 0.00 0.00 46 1016.6
20260831003031 72 182 6.0 13.0 0.00 0.00 0.00 46 1016.6
20260831001530 72 185 5.0 15.0 0.00 0.00 0.00 45 1016.7
20260831000032 73 186 6.0 20.0 0.00 0.00 0.00 43 1016.7
20260830234533 73 208 4.0 15.0 0.00 0.00 0.00 42 1016.9
20260830233104 73 190 5.0 18.0 0.00 0.00 0.00 42 1016.9
20260830231533 73 202 4.0 15.0 0.00 0.00 0.00 42 1017.1
20260830224533 74 198 4.0 18.0 0.00 0.00 0.00 42 1017.5
20260830221532 75 195 4.0 16.0 0.00 0.00 0.00 43 1018.0
20260830214602 75 197 4.0 14.0 0.00 0.00 0.00 44 1018.4
20260830213030 75 329 3.0 14.0 0.00 0.00 0.00 44 1018.6
20260830211530 75 335 2.0 11.0 0.00 0.00 0.00 44 1018.7
20260830210030 75 118 1.0 15.0 0.00 0.00 0.00 45 1018.8
20260830200031 70 11 4.0 11.0 0.00 0.00 0.00 50 1019.6